SCP
0 0 0 0 0 0 0 0 0 0 0 0 0 0 0 0 0 0 0 0 0 0 0 0 0 0 0 0 0 0 0 0 0 0 0 0 0 0 0 0 0 0 0 0
0 0 0 0 0 0 0 0 0 0 0 0 0 0 0 0 0 0 0 0 0 0 0 0 0 0 0 0 0 0 0 0 0 0 0 0 0 0 0 0 0 0 0 0
0 0 0 0 0 0 0 0 0 0 0 0 0 0 0 0 0 0 0 0 0 0 0 0 0 0 -0 -0 0 0 -0 0 0 0 0 0 0 0 0 0 0 0 0 0
0 0 0 0 0 0 0 0 0 0 0 0 0 0 0 0 0 0 0 0 0 0 0 0 0 0 0 0 0 0 0 0 0 0 0 0 0 0 0 0 0 0 0 0
0 0 0 0 0 0 0 0 0 0 0 0 0 0 0 0 0 0 0 0 0 0 0 0 0 0 0 0 0 0 0 0 0 0 0 0 0 0 0 0 0 0 0 0
0 0 0 0 0 0 0 0 0 0 0 0 0 0 0 0 0 0 0 0 0 0 0 0 0 0 0 0 0 0 0 0 0 0 0 0 0 0 0 0 0 0 0 0
0 0 0 0 0 0 0 0 0 0 0 0 0 0 0 0 0 0 0 0 0 0 0 0 0 0 0 0 0 0 0 0 0 0 0 0 0 0 0 0 0 0 0 0
0 0 0 0 0 0 0 0 0 -0 0 0 0 0 0 0 0 0 0 0 0 0 0 0 0 0 0 0 0 0 0 0 0 0 0 0 0 0 0 0 0 0 0 0
0 0 0 0 0 0 0 0 0 0 0 0 0 0 0 -0 -0 -0 0 0 0 0 0 0 0 0 0 0 0 0 0 0 0 0 0 0 0 0 0 0 0 0 0 0
0 0 0 0 0 0 0 0 0 -0 0 -0 0 0 0 0 0 0 0 0 0 0 0 0 0 0 0 0 0 0 0 0 0 0 0 0 0 0 0 0 0 0 0 0
0 0 0 0 0 0 0 0 -0 -0 -0 0 0 0 0 -0 -0 0 0 0 0 0 0 0 0 0 0 0 0 0 0 0 0 0 0 0 0 0 0 0 0 0 0 0
0 0 0 0 0 0 0 0 0 0 0 0 0 0 0 0 0 0 0 0 0 0 0 0 0 0 0 0 0 0 0 0 0 0 0 0 0 0 0 0 0 0 0 0
0 0 0 0 0 0 0 0 0 0 0 0 0 0 0 0 0 0 0 0 0 0 0 0 0 0 0 0 0 0 0 0 0 0 0 0 0 0 0 0 0 0 0 0
0 0 0 0 0 0 0 0 0 0 0 0 0 0 0 0 0 0 0 0 0 0 0 0 0 0 0 0 0 0 0 0 0 0 0 0 0 0 0 0 0 0 0 0
0 0 0 0 0 0 0 0 0 0 0 0 0 0 0 0 0 0 0 0 0 0 0 0 0 0 0 0 0 0 0 0 0 0 0 0 0 0 0 0 0 0 0 0
0 0 0 0 0 0 0 0 0 0 0 0 0 0 0 0 0 0 0 0 0 0 0 0 0 0 0 0 0 0 0 0 0 0 0 0 0 0 0 0 0 0 0 0
0 0 0 0 0 0 0 0 0 0 0 0 0 0 0 0 0 0 0 0 0 0 0 0 0 0 0 0 0 0 0 0 0 0 0 0 0 0 0 0 0 0 0 0
0 0 0 0 0 0 0 0 0 0 0 0 0 0 0 0 0 0 0 0 0 0 0 0 0 0 0 0 0 0 0 0 0 0 0 0 0 0 0 0 0 0 0 0
0 0 0 0 0 0 0 0 0 0 0 0 0 0 0 0 0 0 0 0 0 0 0 0 0 0 0 0 0 0 0 0 0 0 0 0 0 0 0 0 0 0 0 0
0 0 0 0 0 0 0 0 0 0 0 0 0 0 0 0 0 0 0 0 0 0 0 0 0 0 0 0 0 0 0 0 0 0 0 0 0 0 0 0 0 0 0 0
0 0 0 0 0 0 0 0 0 0 0 0 0 0 0 0 0 0 0 0 0 0 0 0 0 0 0 0 0 0 0 0 0 0 0 0 0 0 0 0 0 0 0 0
0 0 0 0 0 0 0 0 0 0 0 0 0 0 0 0 0 0 0 0 0 0 0 0 0 0 0 0 0 0 0 0 0 0 0 0 0 0 0 0 0 0 0 0
0 0 0 0 0 0 -0 0 0 0 0 0 0 0 0 0 0 0 0 0 0 0 0 0 0 0 0 0 0 0 0 0 0 0 0 0 0 0 0 0 0 0 0 0
0 0 0 0 0 0 0 0 0 0 0 0 0 0 0 0 0 0 0 0 0 0 0 0 0 0 0 0 0 0 0 0 0 0 0 0 0 0 0 0 0 0 0 0
0 0 0 0 0 0 0 0 0 0 0 0 0 0 0 0 0 0 0 0 0 0 0 0 0 0 0 0 0 0 0 0 0 0 0 0 0 0 0 0 0 0 0 0
0 0 0 0 0 0 0 0 0 0 0 0 0 0 0 0 0 0 0 0 0 0 0 0 0 0 0 0 0 0 0 0 0 0 0 0 0 0 0 0 0 0 0 0
Wind_Speed_500mb
11 14 7 6 7 9 9 6 4 4 5 16 10 11 16 25 27 23 23 24 21 18 16 22 22 24 34 35 43 39 36 23 14 11 5 14 7 10 24 16 16 27 28 35
13 7 6 5 6 11 11 11 7 4 13 14 15 20 16 28 12 20 32 31 29 29 25 23 21 19 17 30 21 12 12 21 7 5 7 7 15 15 18 23 28 33 37 44
13 4 5 7 8 16 9 11 3 7 6 12 10 10 12 12 24 32 41 49 51 49 45 41 36 32 38 40 33 31 27 16 9 6 10 13 17 19 25 29 34 38 43 42
10 6 8 10 12 8 6 2 6 11 6 6 5 5 5 5 7 8 28 38 39 35 36 38 43 47 39 38 34 29 25 18 9 4 7 14 21 26 32 35 36 34 32 40
4 6 10 14 2 5 4 10 10 7 10 8 7 9 5 11 6 9 18 34 34 36 42 43 40 35 34 31 27 21 15 10 8 11 15 22 27 29 30 28 26 30 39 44
5 5 7 2 8 8 5 10 17 10 6 4 1 7 7 12 14 11 25 31 32 36 40 39 37 30 28 26 22 19 11 5 7 14 17 20 20 19 17 22 29 35 41 43
13 8 10 7 8 7 12 11 6 6 6 9 7 5 12 15 13 23 31 37 34 36 36 37 36 32 25 21 16 9 4 7 10 12 13 16 17 19 26 32 34 38 39 44
8 7 8 11 4 8 6 9 9 9 6 6 6 7 9 9 31 50 45 38 34 34 36 37 38 30 29 20 18 12 6 12 16 18 17 14 22 26 26 30 35 41 44 47
8 1 5 4 3 5 4 7 6 13 3 5 5 7 7 10 13 33 33 35 36 40 40 37 36 33 28 22 13 3 13 15 12 9 15 19 23 27 32 35 40 44 45 49
9 8 5 6 5 15 5 9 6 7 4 6 6 8 9 10 16 16 26 43 43 44 44 44 39 32 23 11 4 12 12 14 15 21 22 25 30 36 36 39 48 47 39 42
6 7 9 3 7 4 4 4 12 9 7 8 2 10 10 25 26 27 35 47 53 54 49 44 36 24 11 3 8 13 16 20 21 27 30 32 28 31 41 50 44 34 36 43
3 10 5 3 4 4 3 6 8 9 6 2 6 11 5 14 26 36 43 54 53 49 42 33 22 12 6 3 15 16 19 20 22 24 26 25 33 45 44 41 37 41 53 53
9 3 5 12 11 7 4 6 8 10 6 9 9 11 2 9 22 32 49 56 50 41 32 24 16 10 9 11 9 14 15 16 22 24 27 37 44 41 42 48 52 58 62 52
8 6 10 13 8 5 7 8 8 10 6 7 11 9 8 8 14 24 40 46 45 37 29 20 14 11 10 9 14 15 17 21 23 30 40 44 41 42 47 53 57 65 57 45
7 7 5 3 6 3 4 9 12 13 10 11 9 14 13 18 18 41 48 49 42 33 23 15 13 14 11 14 16 14 18 22 31 40 44 35 35 40 52 59 65 63 48 41
6 4 4 3 7 10 7 12 13 10 7 14 8 19 14 12 29 36 50 51 41 32 21 16 16 15 16 14 14 18 21 30 40 39 35 35 38 49 56 63 64 52 44 40
6 10 6 7 7 9 12 18 20 11 10 13 13 17 13 9 26 45 53 48 41 31 22 21 20 16 15 17 17 21 28 36 36 36 36 35 47 54 60 59 51 43 39 24
9 8 5 4 6 3 12 3 6 13 9 15 5 8 18 17 33 39 49 47 37 29 25 22 18 16 17 18 20 25 33 35 35 31 34 44 49 57 57 49 45 36 29 24
8 9 7 8 6 12 9 10 14 15 16 18 15 8 15 15 21 26 43 39 32 26 22 18 17 17 16 18 23 32 37 36 33 38 42 46 52 55 51 49 39 31 28 29
10 12 8 5 7 11 13 5 8 10 10 18 30 23 27 26 5 16 45 42 35 29 23 19 20 17 18 22 30 38 39 36 37 39 43 49 51 50 48 46 33 29 26 26
5 6 9 5 6 16 15 8 9 9 15 19 41 43 45 15 35 18 21 40 32 26 24 24 19 17 21 29 36 37 36 35 37 41 48 50 48 45 46 37 27 25 23 23
13 12 7 6 3 15 17 9 14 13 12 29 40 44 57 52 40 22 20 33 30 26 28 21 17 19 27 32 35 34 34 37 42 47 51 48 41 42 41 33 29 29 27 26
5 12 9 17 12 8 39 15 33 11 14 30 38 37 48 52 34 30 29 31 24 28 22 16 17 24 30 33 35 38 38 41 46 51 50 43 39 41 36 34 32 31 29 26
8 11 5 4 9 23 39 48 62 34 40 42 31 41 43 50 44 37 38 21 29 20 12 15 24 31 34 35 37 39 41 47 49 49 46 36 39 43 36 31 29 26 27 31
8 14 8 9 25 36 44 41 37 50 56 55 46 40 41 39 37 33 17 24 18 14 15 24 31 34 35 38 38 42 47 50 50 45 43 38 40 44 38 28 24 24 29 34
19 13 9 12 39 23 30 39 28 27 35 37 35 30 32 32 32 28 21 20 12 13 21 27 31 35 37 40 44 48 51 53 47 43 40 40 39 37 34 30 28 30 31 39
Wind_Direction_500mb
24 72 121 222 219 147 133 130 122 285 55 80 66 51 4 53 106 113 126 139 151 169 193 205 206 196 211 213 203 188 196 225 228 201 208 127 91 340 320 325 306 298 294 291
39 90 229 105 82 103 83 95 86 52 17 86 78 46 28 36 61 109 123 122 127 125 124 110 115 133 158 170 169 150 183 169 152 332 345 338 331 354 333 317 310 307 309 308
122 135 132 115 56 86 47 108 71 135 88 72 106 40 31 29 86 116 119 118 119 116 113 115 116 108 109 106 101 98 102 102 88 37 29 6 337 309 299 299 302 304 309 306
74 8 112 70 74 93 93 68 113 110 88 154 32 220 89 56 61 61 135 134 130 130 128 119 113 108 112 115 118 115 116 120 105 14 307 285 286 291 286 285 290 294 312 324
245 67 66 61 71 78 109 74 66 88 85 95 9 87 275 128 193 207 187 160 152 141 132 125 121 123 129 136 138 138 135 151 192 236 266 278 281 283 288 295 306 318 320 318
50 44 60 87 53 57 112 54 37 50 72 52 290 129 235 192 189 179 199 182 161 148 144 143 137 148 152 161 156 171 162 177 266 284 290 286 294 302 311 321 328 326 332 332
11 348 333 48 78 44 71 64 11 358 8 218 319 111 242 213 179 178 187 185 177 168 166 157 161 164 173 163 162 169 196 278 305 312 304 303 315 326 330 333 329 327 321 327
125 343 8 345 79 155 76 139 151 211 195 247 347 239 250 252 190 182 186 177 174 174 175 176 178 181 172 176 173 180 242 311 310 304 306 324 338 341 336 325 319 321 323 324
136 14 314 49 59 109 174 54 157 108 30 57 256 292 326 51 113 150 173 181 187 192 194 190 179 174 169 170 175 289 320 320 329 354 357 350 334 325 319 320 324 323 316 311
187 104 31 342 79 44 109 146 58 11 135 260 295 273 230 196 183 166 174 189 189 185 176 174 171 170 168 169 306 327 340 356 356 353 343 333 328 323 317 320 321 320 309 310
118 94 285 19 27 158 25 55 54 106 111 159 278 262 223 192 189 184 185 190 182 177 174 172 168 167 175 246 342 331 332 341 342 340 333 322 314 319 323 327 332 326 318 313
29 121 117 187 278 247 173 135 127 112 203 92 146 275 329 238 201 186 188 189 182 177 171 170 172 187 231 236 292 304 322 332 325 318 316 317 323 330 336 339 336 332 326 322
179 33 63 354 354 346 172 109 101 104 85 195 132 262 357 116 148 189 178 181 179 170 167 175 189 210 219 244 273 294 292 296 310 311 318 326 332 336 337 338 333 329 327 318
111 100 152 185 198 171 171 158 150 132 125 180 226 267 236 194 175 168 180 181 173 174 179 189 206 210 224 249 269 270 283 304 310 319 328 331 334 336 335 332 329 328 325 314
92 126 109 63 11 353 232 187 181 193 183 170 242 213 244 216 204 196 187 179 178 184 193 209 215 217 244 270 266 273 296 308 318 327 331 326 325 327 328 326 327 327 320 311
18 167 132 182 359 10 283 251 218 223 205 256 256 278 208 237 212 197 194 184 187 196 207 215 218 239 265 266 275 288 300 316 328 329 315 312 316 322 325 327 328 328 320 310
77 128 102 260 4 345 327 224 201 199 193 165 196 230 166 187 195 191 189 192 198 205 214 221 234 252 264 274 276 295 315 325 329 324 317 307 319 324 328 327 327 326 322 325
123 97 72 185 25 352 242 265 225 208 221 207 219 212 201 215 207 204 200 202 208 215 223 228 245 261 266 266 287 308 319 324 325 323 316 320 324 327 327 328 326 321 318 306
68 116 91 140 198 299 289 201 185 174 259 197 204 168 166 159 181 218 211 217 221 227 223 240 250 247 261 276 298 313 321 321 320 320 323 324 326 327 326 327 326 316 308 295
59 66 110 103 148 222 240 264 170 111 294 206 183 176 167 151 161 241 219 217 219 220 226 236 233 250 272 293 310 317 318 316 320 322 322 323 323 325 325 323 314 308 305 300
34 14 160 130 231 286 243 195 144 106 245 181 191 194 179 190 216 240 220 217 216 222 223 218 233 261 288 307 314 314 312 317 316 316 318 320 317 321 322 321 315 303 294 292
170 155 201 109 64 279 168 98 164 221 202 181 193 206 207 223 225 217 192 192 201 205 209 219 249 284 304 311 311 311 312 311 312 315 316 315 306 314 320 310 302 300 299 287
234 190 183 185 215 230 194 223 226 234 238 215 216 235 224 222 204 191 189 179 211 209 213 240 281 301 310 313 312 312 311 310 312 313 315 314 298 305 313 305 297 294 289 275
246 173 207 86 258 241 257 248 252 260 258 265 265 247 237 226 210 194 180 218 200 198 236 282 302 311 312 312 315 314 314 312 311 311 315 317 304 303 300 302 300 291 277 282
200 156 191 261 280 275 272 268 269 263 264 268 266 254 236 210 188 181 189 179 185 224 277 298 308 309 312 316 316 315 315 314 312 308 311 316 303 299 290 292 298 295 289 291
193 195 167 231 266 251 276 296 295 281 283 272 251 211 193 192 180 162 161 198 219 280 298 303 304 309 315 317 315 314 314 312 309 307 308 307 304 295 285 285 287 296 296 308
Wind_Speed_850mb
11 14 7 6 7 9 9 6 4 4 5 16 10 11 16 25 27 23 23 24 21 18 16 22 22 24 34 35 43 39 36 23 14 11 5 14 7 10 24 16 16 27 28 35
13 7 6 5 6 11 11 11 7 4 13 14 15 20 16 28 12 20 32 31 29 29 25 23 21 19 17 30 21 12 12 21 7 5 7 7 15 15 18 23 28 33 37 44
13 4 5 7 8 16 9 11 3 7 6 12 10 10 12 12 24 32 41 49 51 49 45 41 36 32 38 40 33 31 27 16 9 6 10 13 17 19 25 29 34 38 43 42
10 6 8 10 12 8 6 2 6 11 6 6 5 5 5 5 7 8 28 38 39 35 36 38 43 47 39 38 34 29 25 18 9 4 7 14 21 26 32 35 36 34 32 40
4 6 10 14 2 5 4 10 10 7 10 8 7 9 5 11 6 9 18 34 34 36 42 43 40 35 34 31 27 21 15 10 8 11 15 22 27 29 30 28 26 30 39 44
5 5 7 2 8 8 5 10 17 10 6 4 1 7 7 12 14 11 25 31 32 36 40 39 37 30 28 26 22 19 11 5 7 14 17 20 20 19 17 22 29 35 41 43
13 8 10 7 8 7 12 11 6 6 6 9 7 5 12 15 13 23 31 37 34 36 36 37 36 32 25 21 16 9 4 7 10 12 13 16 17 19 26 32 34 38 39 44
8 7 8 11 4 8 6 9 9 9 6 6 6 7 9 9 31 50 45 38 34 34 36 37 38 30 29 20 18 12 6 12 16 18 17 14 22 26 26 30 35 41 44 47
8 1 5 4 3 5 4 7 6 13 3 5 5 7 7 10 13 33 33 35 36 40 40 37 36 33 28 22 13 3 13 15 12 9 15 19 23 27 32 35 40 44 45 49
9 8 5 6 5 15 5 9 6 7 4 6 6 8 9 10 16 16 26 43 43 44 44 44 39 32 23 11 4 12 12 14 15 21 22 25 30 36 36 39 48 47 39 42
6 7 9 3 7 4 4 4 12 9 7 8 2 10 10 25 26 27 35 47 53 54 49 44 36 24 11 3 8 13 16 20 21 27 30 32 28 31 41 50 44 34 36 43
3 10 5 3 4 4 3 6 8 9 6 2 6 11 5 14 26 36 43 54 53 49 42 33 22 12 6 3 15 16 19 20 22 24 26 25 33 45 44 41 37 41 53 53
9 3 5 12 11 7 4 6 8 10 6 9 9 11 2 9 22 32 49 56 50 41 32 24 16 10 9 11 9 14 15 16 22 24 27 37 44 41 42 48 52 58 62 52
8 6 10 13 8 5 7 8 8 10 6 7 11 9 8 8 14 24 40 46 45 37 29 20 14 11 10 9 14 15 17 21 23 30 40 44 41 42 47 53 57 65 57 45
7 7 5 3 6 3 4 9 12 13 10 11 9 14 13 18 18 41 48 49 42 33 23 15 13 14 11 14 16 14 18 22 31 40 44 35 35 40 52 59 65 63 48 41
6 4 4 3 7 10 7 12 13 10 7 14 8 19 14 12 29 36 50 51 41 32 21 16 16 15 16 14 14 18 21 30 40 39 35 35 38 49 56 63 64 52 44 40
6 10 6 7 7 9 12 18 20 11 10 13 13 17 13 9 26 45 53 48 41 31 22 21 20 16 15 17 17 21 28 36 36 36 36 35 47 54 60 59 51 43 39 24
9 8 5 4 6 3 12 3 6 13 9 15 5 8 18 17 33 39 49 47 37 29 25 22 18 16 17 18 20 25 33 35 35 31 34 44 49 57 57 49 45 36 29 24
8 9 7 8 6 12 9 10 14 15 16 18 15 8 15 15 21 26 43 39 32 26 22 18 17 17 16 18 23 32 37 36 33 38 42 46 52 55 51 49 39 31 28 29
10 12 8 5 7 11 13 5 8 10 10 18 30 23 27 26 5 16 45 42 35 29 23 19 20 17 18 22 30 38 39 36 37 39 43 49 51 50 48 46 33 29 26 26
5 6 9 5 6 16 15 8 9 9 15 19 41 43 45 15 35 18 21 40 32 26 24 24 19 17 21 29 36 37 36 35 37 41 48 50 48 45 46 37 27 25 23 23
13 12 7 6 3 15 17 9 14 13 12 29 40 44 57 52 40 22 20 33 30 26 28 21 17 19 27 32 35 34 34 37 42 47 51 48 41 42 41 33 29 29 27 26
5 12 9 17 12 8 39 15 33 11 14 30 38 37 48 52 34 30 29 31 24 28 22 16 17 24 30 33 35 38 38 41 46 51 50 43 39 41 36 34 32 31 29 26
8 11 5 4 9 23 39 48 62 34 40 42 31 41 43 50 44 37 38 21 29 20 12 15 24 31 34 35 37 39 41 47 49 49 46 36 39 43 36 31 29 26 27 31
8 14 8 9 25 36 44 41 37 50 56 55 46 40 41 39 37 33 17 24 18 14 15 24 31 34 35 38 38 42 47 50 50 45 43 38 40 44 38 28 24 24 29 34
19 13 9 12 39 23 30 39 28 27 35 37 35 30 32 32 32 28 21 20 12 13 21 27 31 35 37 40 44 48 51 53 47 43 40 40 39 37 34 30 28 30 31 39
Wind_Direction_850mb
24 72 121 222 219 147 133 130 122 285 55 80 66 51 4 53 106 113 126 139 151 169 193 205 206 196 211 213 203 188 196 225 228 201 208 127 91 340 320 325 306 298 294 291
39 90 229 105 82 103 83 95 86 52 17 86 78 46 28 36 61 109 123 122 127 125 124 110 115 133 158 170 169 150 183 169 152 332 345 338 331 354 333 317 310 307 309 308
122 135 132 115 56 86 47 108 71 135 88 72 106 40 31 29 86 116 119 118 119 116 113 115 116 108 109 106 101 98 102 102 88 37 29 6 337 309 299 299 302 304 309 306
74 8 112 70 74 93 93 68 113 110 88 154 32 220 89 56 61 61 135 134 130 130 128 119 113 108 112 115 118 115 116 120 105 14 307 285 286 291 286 285 290 294 312 324
245 67 66 61 71 78 109 74 66 88 85 95 9 87 275 128 193 207 187 160 152 141 132 125 121 123 129 136 138 138 135 151 192 236 266 278 281 283 288 295 306 318 320 318
50 44 60 87 53 57 112 54 37 50 72 52 290 129 235 192 189 179 199 182 161 148 144 143 137 148 152 161 156 171 162 177 266 284 290 286 294 302 311 321 328 326 332 332
11 348 333 48 78 44 71 64 11 358 8 218 319 111 242 213 179 178 187 185 177 168 166 157 161 164 173 163 162 169 196 278 305 312 304 303 315 326 330 333 329 327 321 327
125 343 8 345 79 155 76 139 151 211 195 247 347 239 250 252 190 182 186 177 174 174 175 176 178 181 172 176 173 180 242 311 310 304 306 324 338 341 336 325 319 321 323 324
136 14 314 49 59 109 174 54 157 108 30 57 256 292 326 51 113 150 173 181 187 192 194 190 179 174 169 170 175 289 320 320 329 354 357 350 334 325 319 320 324 323 316 311
187 104 31 342 79 44 109 146 58 11 135 260 295 273 230 196 183 166 174 189 189 185 176 174 171 170 168 169 306 327 340 356 356 353 343 333 328 323 317 320 321 320 309 310
118 94 285 19 27 158 25 55 54 106 111 159 278 262 223 192 189 184 185 190 182 177 174 172 168 167 175 246 342 331 332 341 342 340 333 322 314 319 323 327 332 326 318 313
29 121 117 187 278 247 173 135 127 112 203 92 146 275 329 238 201 186 188 189 182 177 171 170 172 187 231 236 292 304 322 332 325 318 316 317 323 330 336 339 336 332 326 322
179 33 63 354 354 346 172 109 101 104 85 195 132 262 357 116 148 189 178 181 179 170 167 175 189 210 219 244 273 294 292 296 310 311 318 326 332 336 337 338 333 329 327 318
111 100 152 185 198 171 171 158 150 132 125 180 226 267 236 194 175 168 180 181 173 174 179 189 206 210 224 249 269 270 283 304 310 319 328 331 334 336 335 332 329 328 325 314
92 126 109 63 11 353 232 187 181 193 183 170 242 213 244 216 204 196 187 179 178 184 193 209 215 217 244 270 266 273 296 308 318 327 331 326 325 327 328 326 327 327 320 311
18 167 132 182 359 10 283 251 218 223 205 256 256 278 208 237 212 197 194 184 187 196 207 215 218 239 265 266 275 288 300 316 328 329 315 312 316 322 325 327 328 328 320 310
77 128 102 260 4 345 327 224 201 199 193 165 196 230 166 187 195 191 189 192 198 205 214 221 234 252 264 274 276 295 315 325 329 324 317 307 319 324 328 327 327 326 322 325
123 97 72 185 25 352 242 265 225 208 221 207 219 212 201 215 207 204 200 202 208 215 223 228 245 261 266 266 287 308 319 324 325 323 316 320 324 327 327 328 326 321 318 306
68 116 91 140 198 299 289 201 185 174 259 197 204 168 166 159 181 218 211 217 221 227 223 240 250 247 261 276 298 313 321 321 320 320 323 324 326 327 326 327 326 316 308 295
59 66 110 103 148 222 240 264 170 111 294 206 183 176 167 151 161 241 219 217 219 220 226 236 233 250 272 293 310 317 318 316 320 322 322 323 323 325 325 323 314 308 305 300
34 14 160 130 231 286 243 195 144 106 245 181 191 194 179 190 216 240 220 217 216 222 223 218 233 261 288 307 314 314 312 317 316 316 318 320 317 321 322 321 315 303 294 292
170 155 201 109 64 279 168 98 164 221 202 181 193 206 207 223 225 217 192 192 201 205 209 219 249 284 304 311 311 311 312 311 312 315 316 315 306 314 320 310 302 300 299 287
234 190 183 185 215 230 194 223 226 234 238 215 216 235 224 222 204 191 189 179 211 209 213 240 281 301 310 313 312 312 311 310 312 313 315 314 298 305 313 305 297 294 289 275
246 173 207 86 258 241 257 248 252 260 258 265 265 247 237 226 210 194 180 218 200 198 236 282 302 311 312 312 315 314 314 312 311 311 315 317 304 303 300 302 300 291 277 282
200 156 191 261 280 275 272 268 269 263 264 268 266 254 236 210 188 181 189 179 185 224 277 298 308 309 312 316 316 315 315 314 312 308 311 316 303 299 290 292 298 295 289 291
193 195 167 231 266 251 276 296 295 281 283 272 251 211 193 192 180 162 161 198 219 280 298 303 304 309 315 317 315 314 314 312 309 307 308 307 304 295 285 285 287 296 296 308